CubeBel-2 (EU11S)
1 57175U 23091K   26237.77327855  .00011826  00000-0  40082-3 0  9999
2 57175  97.4999 301.6668 0008409 219.5189 140.5440 15.30680218174947
RS-38S
1 57189U 23091Z   26237.80638025  .00016749  00000-0  44908-3 0  9992
2 57189  97.5044 308.7691 0007305 169.0642 191.0762 15.38029369175384
SONATE-2
1 59112U 24043Q   26237.67548905  .00046738  00000-0  49448-3 0  9995
2 59112  97.5592  32.6498 0004784 303.8854  56.1948 15.64022207138737
GRBBeta
1 60237U 24128C   26237.36605204  .00003353  00000-0  23439-3 0  9999
2 60237  61.9920 333.4723 0030853 149.7657 210.5225 15.07068956116697
Curium One
1 60242U 24128H   26237.36751953  .00007127  00000-0  40511-3 0  9991
2 60242  61.9801 320.5819 0029807 145.5167 214.7871 15.13406518116927
ROBUSTA-3A
1 60243U 24128J   26237.63677865  .00006559  00000-0  38259-3 0  9995
2 60243  61.9881 322.4909 0031666 142.5953 217.7355 15.12526555116926
CatSat
1 60246U 24125J   26237.08672416  .00099802  00000-0  89563-3 0  9998
2 60246  97.2010  90.9174 0014495 281.2037  78.7595 15.67838486118158
HYPERVIEW-1G (RS66S)
1 61772U 24199AP  26230.11543498  .07890463  24672-5  93922-3 0  9997
2 61772  97.2456 114.2453 0006603 245.8477 114.2131 16.36574258144515
AO-123
1 61781U 24199AY  26237.80039588  .00007058  00000-0  19919-3 0  9991
2 61781  97.2896 105.8499 0015195  62.6080 297.6709 15.36581582144615
LASARsat
1 62391U 24247Q   26237.39011242  .00038717  00000-0  66341-3 0  9991
2 62391  44.9711 232.0951 0007710  55.5752 304.5867 15.50590032 94045
CroCube
1 62394U 24247T   26237.03134957  .00043022  00000-0  67126-3 0  9991
2 62394  44.9685 230.1372 0007916  62.8834 297.2865 15.53158446 94031
JINJUSat 1B
1 63210U 25052A   26237.65836735  .00015859  00000-0  46155-3 0  9991
2 63210  97.3904 134.5732 0003329 153.4452 206.6963 15.35501274 80757
NUSHSAT 1
1 63211U 25052B   26237.70835973  .00020284  00000-0  53493-3 0  9992
2 63211  97.3879 135.4551 0002950 150.1766 209.9647 15.38519283 80824
TEVEL2-4
1 63213U 25052D   26237.44313730  .00018627  00000-0  51839-3 0  9997
2 63213  97.3801 134.0274 0002073 157.2357 202.8979 15.36870517 80747
TEVEL2-5
1 63214U 25052E   26237.47225635  .00018627  00000-0  52190-3 0  9998
2 63214  97.3801 133.9830 0001910 158.4449 201.6876 15.36660131 80740
TEVEL2-6
1 63215U 25052F   26237.68152750  .00017508  00000-0  49119-3 0  9993
2 63215  97.3804 134.1779 0001845 157.1439 202.9888 15.36633284 80770
TEVEL2-1
1 63217U 25052H   26237.21540064  .00017945  00000-0  51363-3 0  9992
2 63217  97.3777 133.2480 0001330 181.0795 179.0446 15.36001106 80686
TEVEL2-3
1 63218U 25052J   26237.66317170  .00017424  00000-0  49745-3 0  9995
2 63218  97.3780 133.7288 0001252 165.7192 194.4087 15.36087943 80758
TEVEL2-2
1 63219U 25052K   26237.15005463  .00018119  00000-0  51841-3 0  9991
2 63219  97.3779 133.1859 0001283 183.1287 176.9949 15.36012063 80672
TEVEL2-9
1 63237U 25052AD  26237.67705774  .00014953  00000-0  45839-3 0  9992
2 63237  97.3840 132.9296 0003852 245.6439 114.4402 15.33870090 80670
TEVEL2-7
1 63238U 25052AE  26235.51388802  .00015154  00000-0  47057-3 0  9991
2 63238  97.3840 130.6525 0003641 257.9226 102.1608 15.33456949 80335
TEVEL2-8
1 63239U 25052AF  26237.67610640  .00014962  00000-0  46384-3 0  9997
2 63239  97.3842 132.7877 0003769 248.7020 111.3820 15.33511361 80666
SPIRONE
1 66657U 25274H   26237.05430049  .00001324  00000-0  13008-3 0  9990
2 66657  97.7469 165.3689 0012887 138.9840 221.2351 14.93780146 40509
K-HERO
1 66660U 25274L   26237.30803494  .00001425  00000-0  13814-3 0  9997
2 66660  97.7478 165.8303 0014681 142.8112 217.4128 14.94179988 40552
SNUGLITE-III DURI
1 66661U 25274M   26237.69640404  .00001524  00000-0  14736-3 0  9994
2 66661  97.7475 166.2342 0015343 142.8904 217.3380 14.94194470 40612
SAKHACUBE-CHOLBON
1 67290U 25313AU  26237.16746162  .00009552  00000-0  37358-3 0  9991
2 67290  97.3893 311.3762 0010660 110.4899 249.7485 15.25999510 36490
RS95S (QMR-KWT-2)
1 67291U 25313AV  26237.21167634  .00014197  00000-0  52252-3 0  9990
2 67291  97.3892 311.7652 0010218 108.8551 251.3797 15.27917595 36521
Ten-Koh2
1 68261U 25241B   26236.59529002  .00007134  00000-0  29812-3 0  9998
2 68261  51.6644 353.8573 0006634   8.9705 351.1391 15.24650253 25343
JACK-002
1 68417U 26067B   26237.82113558  .00006328  00000-0  29567-3 0  9991
2 68417  97.4626 195.6118 0003609  61.7667 298.3932 15.20145410 22524
DISCO 2
1 68431U 26067R   26235.94362687  .00007060  00000-0  33112-3 0  9992
2 68431  97.4652 193.7486 0004144 102.7841 257.3858 15.19971810 22230
HADES-SA (SpinnyONE)
1 68446U 26067AG  26237.13978974  .00016600  00000-0  74618-3 0  9999
2 68446  97.4448 194.5306 0006255 171.4602 188.6741 15.21187781 22407
PARUS-6U1
1 68456U 26067AS  26237.60714397  .00004774  00000-0  23699-3 0  9991
2 68456  97.4608 194.9576 0005711 162.9698 197.1729 15.18150657 22460
SAL-E
1 68458U 26067AU  26236.59743294  .00006402  00000-0  31241-3 0  9990
2 68458  97.4530 193.8673 0005453 174.2136 185.9163 15.18621312 22310
FSI-SAT 2
1 68792U 26088A   26237.66881513  .00003656  00000-0  24587-3 0  9993
2 68792  97.5160  25.2447 0013046 224.9432 135.0741 15.07303269 18754
OrigamiSat 2
1 68795U 26088D   26237.37058696  .00013087  00000-0  80424-3 0  9993
2 68795  97.5138  25.3345 0014604 196.9411 163.1333 15.10102713 18738
ARICA 2
1 68796U 26088E   26237.33880325  .00003974  00000-0  25541-3 0  9995
2 68796  97.5151  25.2086 0015034 195.6647 164.4119 15.08898289 18722
WASEDA-SAT-ZERO-II
1 68797U 26088F   26237.38635907  .00005254  00000-0  33271-3 0  9997
2 68797  97.5139  25.2939 0014936 195.4638 164.6137 15.09305694 18731
MANGARO-II-Piscus
1 68798U 26088G   26237.37611209  .00003801  00000-0  24220-3 0  9996
2 68798  97.5152  25.3247 0018417 200.0193 160.0316 15.09198161 18735
CO-128
1 69912U 26156AV  26237.53910937  .00001396  00000-0  14721-3 0  9991
2 69912  97.7502 137.1196 0002589  14.8600 345.2694 14.90896517  7336
MARINA
1 69920U 26156BD  26237.63469829  .00001733  00000-0  17600-3 0  9994
2 69920  97.7470 137.2833 0007552   3.9423 356.1854 14.92094720  7354
IO-86
1 40931U          26199.45381863  .00000000  00000-0  77536-4 0    07
2 40931   6.0006 322.6653 0012733 338.8432 273.6875 14.79294310    03
LILIUM-4                
1 71922C 26067AC  26089.50133053 -.00014632  00000+0 -74472-3 0    04
2 71922  97.4497  49.1617 0004341   5.9603 355.7042 15.16896692    16
